Weather History for KRYV - May, 2013

Change the Weather History Date:

Saturday, May 4, 2013

  Actual Average Record
Temperature  
Mean Temperature 57 °F -  
Max Temperature 70 °F 65 °F 90 °F (1952)
Min Temperature 45 °F 41 °F 26 °F (1935)
Degree Days  
Heating Degree Days 8    
Growing Degree Days 7 (Base 50)    
Moisture  
Dew Point 47 °F    
Average Humidity 63    
Maximum Humidity 95    
Minimum Humidity 43    
Precipitation  
Precipitation 0.00 in - - ()
Sea Level Pressure  
Sea Level Pressure 30.02 in    
Wind  
Wind Speed 7 mph (ENE)    
Max Wind Speed 15 mph    
Max Gust Speed 21 mph    
Visibility 10 miles    
Events      
Averages and records for this station are not official NWS values.
T = Trace of Precipitation, MM = Missing Value Source: NWS Daily Summary

Daily Weather History Graph

Daily Weather History Graph

Search for Another Location

Airport or City:

Trip Planner

Search our weather history database for the weather conditions in past years. The results will help you decide how hot, cold, wet, or windy it might be!

Date:

Astronomy

May. 04, 2013 Rise Set
Actual Time 5:43 AM CDT 8:00 PM CDT
Civil Twilight 5:12 AM CDT 8:31 PM CDT
Nautical Twilight 4:33 AM CDT 9:10 PM CDT
Astronomical Twilight 3:50 AM CDT 9:54 PM CDT
Moon 2:51 AM CDT (5/4) 2:49 PM CDT (5/4)
Length of Visible Light 15h 19m
Length of Day
14h 16m
Waning Crescent, 27% of the Moon is Illuminated
May 4
Waning Crescent
May 9
New
May 17
First Quarter
May 24
Full
May 31
Last Quarter

Hourly Weather History & Observations

Time (CDT) Temp. Dew Point Humidity Pressure Visibility Wind Dir Wind Speed Gust Speed Precip Events Conditions
12:35 AM 49.8 °F 45.7 °F 86% 29.99 in 10.0 mi ENE 9.2 mph - N/A   Overcast
12:55 AM 50.0 °F 45.5 °F 85% 30.00 in 7.0 mi East 5.8 mph - N/A   Overcast
1:35 AM 49.3 °F 46.0 °F 89% 29.98 in 10.0 mi NE 5.8 mph - N/A   Overcast
1:55 AM 49.1 °F 46.0 °F 89% 29.98 in 10.0 mi ENE 4.6 mph - N/A   Overcast
2:15 AM 48.7 °F 46.6 °F 92% 29.97 in 10.0 mi ENE 5.8 mph - N/A   Overcast
2:55 AM 49.1 °F 45.5 °F 87% 29.96 in 10.0 mi ENE 9.2 mph - N/A   Overcast
6:15 AM 45.9 °F 44.4 °F 95% 30.00 in 10.0 mi Calm Calm - N/A   Scattered Clouds
7:55 AM 50.4 °F 43.9 °F 78% 30.02 in 10.0 mi ENE 6.9 mph - N/A   Mostly Cloudy
11:15 AM 59.7 °F 47.3 °F 63% 30.04 in 10.0 mi East 5.8 mph - N/A   Overcast
11:35 AM 60.4 °F 47.3 °F 62% 30.04 in 10.0 mi East 3.5 mph - N/A   Mostly Cloudy
11:55 AM 61.3 °F 46.9 °F 59% 30.04 in 10.0 mi ENE 4.6 mph - N/A   Scattered Clouds
12:35 PM 63.9 °F 49.3 °F 59% 30.03 in 10.0 mi ENE 4.6 mph - N/A   Scattered Clouds
12:55 PM 64.6 °F 49.5 °F 58% 30.02 in 10.0 mi Calm Calm - N/A   Clear
1:15 PM 65.7 °F 50.0 °F 57% 30.02 in 10.0 mi NE 5.8 mph - N/A   Clear
1:35 PM 66.9 °F 49.8 °F 54% 30.01 in 10.0 mi ENE 9.2 mph - N/A   Clear
1:55 PM 68.2 °F 48.0 °F 48% 30.01 in 10.0 mi East 8.1 mph - N/A   Clear
2:15 PM 69.4 °F 47.5 °F 45% 30.00 in 10.0 mi ENE 9.2 mph 17.3 mph N/A   Clear
2:55 PM 69.8 °F 47.8 °F 46% 30.00 in 10.0 mi ENE 12.7 mph 16.1 mph N/A   Clear
3:15 PM 69.4 °F 48.2 °F 47% 30.00 in 10.0 mi East 9.2 mph 18.4 mph N/A   Clear
3:35 PM 69.6 °F 46.0 °F 43% 30.00 in 10.0 mi ESE 12.7 mph - N/A   Clear
3:55 PM 69.1 °F 46.0 °F 44% 30.00 in 10.0 mi East 15.0 mph 20.7 mph N/A   Clear
4:15 PM 68.4 °F 47.1 °F 47% 30.00 in 10.0 mi East 13.8 mph - N/A   Clear
4:55 PM 68.5 °F 46.2 °F 45% 30.01 in 10.0 mi East 13.8 mph 19.6 mph N/A   Clear
5:15 PM 67.1 °F 45.9 °F 46% 30.01 in 10.0 mi East 10.4 mph - N/A   Clear
6:15 PM 68.2 °F 46.4 °F 46% 30.01 in 10.0 mi ESE 8.1 mph - N/A   Clear
6:35 PM 68.0 °F 46.6 °F 46% 30.01 in 10.0 mi East 9.2 mph - N/A   Clear
6:55 PM 67.5 °F 47.3 °F 48% 30.01 in 10.0 mi East 8.1 mph - N/A   Clear
7:15 PM 65.7 °F 47.7 °F 52% 30.02 in 10.0 mi East 4.6 mph - N/A   Clear
7:35 PM 63.7 °F 47.7 °F 56% 30.02 in 10.0 mi ENE 6.9 mph - N/A   Clear
7:55 PM 62.2 °F 46.9 °F 57% 30.03 in 10.0 mi East 5.8 mph - N/A   Clear
8:15 PM 60.1 °F 46.8 °F 61% 30.03 in 10.0 mi East 4.6 mph - N/A   Clear
8:35 PM 58.6 °F 46.9 °F 65% 30.04 in 10.0 mi ENE 4.6 mph - N/A   Scattered Clouds
8:55 PM 59.2 °F 47.5 °F 65% 30.05 in 10.0 mi ENE 4.6 mph - N/A   Mostly Cloudy
9:15 PM 58.5 °F 47.3 °F 66% 30.05 in 10.0 mi ENE 4.6 mph - N/A   Scattered Clouds
9:35 PM 56.8 °F 46.6 °F 69% 30.05 in 10.0 mi ENE 5.8 mph - N/A   Clear
9:55 PM 56.3 °F 46.0 °F 68% 30.05 in 10.0 mi ENE 5.8 mph - N/A   Clear
10:15 PM 56.1 °F 46.0 °F 69% 30.06 in 10.0 mi NE 3.5 mph - N/A   Clear
10:35 PM 56.1 °F 45.5 °F 68% 30.05 in 10.0 mi NE 3.5 mph - N/A   Scattered Clouds
10:55 PM 55.4 °F 44.8 °F 67% 30.05 in 10.0 mi NE 4.6 mph - N/A   Overcast
11:15 PM 54.9 °F 43.7 °F 66% 30.05 in 10.0 mi NE 4.6 mph - N/A   Mostly Cloudy
11:35 PM 54.7 °F 43.2 °F 65% 30.04 in 10.0 mi NE 3.5 mph - N/A   Scattered Clouds
11:55 PM 53.1 °F 43.2 °F 69% 30.04 in 10.0 mi NE 3.5 mph - N/A   Clear